Dallas Addison, TX

8:02 AM CDT on September 22, 2017 (GMT -0500)
Addison

Weather History for KADS - August, 2013

Change the Weather History Date:

Wednesday, August 7, 2013

  Actual Average Record
Temperature  
Mean Temperature 93 °F -  
Max Temperature 104 °F 94 °F 107 °F (2003)
Min Temperature 82 °F 75 °F 60 °F (1997)
Cooling Degree Days 28    
Growing Degree Days 43 (Base 50)    
Moisture  
Dew Point 62 °F    
Average Humidity 40    
Maximum Humidity 62    
Minimum Humidity 24    
Precipitation  
Precipitation 0.00 in - - ()
Sea Level Pressure  
Sea Level Pressure 29.85 in    
Wind  
Wind Speed 11 mph (South)    
Max Wind Speed 15 mph    
Max Gust Speed 22 mph    
Visibility 10 miles    
Events      
Averages and records for this station are not official NWS values.
T = Trace of Precipitation, MM = Missing Value Source: NWS Daily Summary

Daily Weather History Graph

Daily Weather History Graph

Search for Another Location

Airport or City:

Trip Planner

Search our weather history database for the weather conditions in past years. The results will help you decide how hot, cold, wet, or windy it might be!

Date:

Astronomy

Aug. 07, 2013 Rise Set
Actual Time 6:45 AM CDT 8:20 PM CDT
Civil Twilight 6:18 AM CDT 8:47 PM CDT
Nautical Twilight 5:46 AM CDT 9:18 PM CDT
Astronomical Twilight 5:13 AM CDT 9:52 PM CDT
Moon 7:28 AM CDT (8/7) 8:36 PM CDT (8/7)
Length of Visible Light 14h 28m
Length of Day
13h 35m
New Moon, 1% of the Moon is Illuminated
Aug 7
New Moon
Aug 14
First Quarter
Aug 20
Full
Aug 28
Last Quarter
Sep 5
New

Hourly Weather History & Observations

Time (CDT) Temp. Heat Index Dew Point Humidity Pressure Visibility Wind Dir Wind Speed Gust Speed Precip Events Conditions
12:15 AM 91.4 °F 89.4 °F 55.4 °F 29% 29.85 in 10.0 mi SSE 10.4 mph - N/A   Clear
12:35 AM 91.4 °F 89.9 °F 57.2 °F 31% 29.85 in 10.0 mi South 13.8 mph 17.3 mph N/A   Clear
12:55 AM 89.6 °F 88.9 °F 59.0 °F 36% 29.86 in 10.0 mi South 11.5 mph 18.4 mph N/A   Clear
1:15 AM 89.6 °F 89.5 °F 60.8 °F 38% 29.86 in 10.0 mi South 12.7 mph 18.4 mph N/A   Clear
1:35 AM 89.6 °F 89.5 °F 60.8 °F 38% 29.86 in 10.0 mi South 15.0 mph 21.9 mph N/A   Clear
1:55 AM 87.8 °F 87.6 °F 60.8 °F 40% 29.86 in 10.0 mi South 13.8 mph 18.4 mph N/A   Clear
2:15 AM 87.8 °F 87.6 °F 60.8 °F 40% 29.86 in 10.0 mi South 9.2 mph - N/A   Clear
2:35 AM 87.8 °F 88.5 °F 62.6 °F 43% 29.85 in 10.0 mi South 11.5 mph 16.1 mph N/A   Clear
2:55 AM 87.8 °F 88.5 °F 62.6 °F 43% 29.86 in 10.0 mi South 9.2 mph 16.1 mph N/A   Clear
3:15 AM 86.0 °F 86.6 °F 62.6 °F 45% 29.85 in 10.0 mi South 13.8 mph 18.4 mph N/A   Clear
3:35 AM 86.0 °F 87.3 °F 64.4 °F 48% 29.85 in 10.0 mi South 13.8 mph 19.6 mph N/A   Clear
3:55 AM 86.0 °F 87.3 °F 64.4 °F 48% 29.85 in 10.0 mi South 11.5 mph - N/A   Clear
4:15 AM 84.2 °F 85.6 °F 64.4 °F 51% 29.86 in 10.0 mi South 9.2 mph - N/A   Clear
4:35 AM 84.2 °F 85.6 °F 64.4 °F 51% 29.85 in 10.0 mi South 11.5 mph - N/A   Clear
4:55 AM 82.4 °F 83.9 °F 64.4 °F 54% 29.84 in 10.0 mi South 12.7 mph 18.4 mph N/A   Clear
5:15 AM 82.4 °F 83.9 °F 64.4 °F 54% 29.84 in 10.0 mi South 10.4 mph 17.3 mph N/A   Clear
5:35 AM 82.4 °F 83.9 °F 64.4 °F 54% 29.85 in 10.0 mi South 6.9 mph - N/A   Clear
5:52 AM 82.4 °F 85.4 °F 68.0 °F 62% 29.86 in 13.0 mi South 12.7 mph - N/A   Clear
5:55 AM 82.4 °F 83.9 °F 64.4 °F 54% 29.85 in 10.0 mi South 8.1 mph - N/A   Clear
6:53 AM 82.4 °F 84.6 °F 66.2 °F 58% 29.86 in 8.0 mi South 12.7 mph - N/A   Partly Cloudy
7:47 AM 82.4 °F 84.6 °F 66.2 °F 58% 29.86 in 8.0 mi South 13.8 mph 18.4 mph N/A   Haze
8:47 AM 84.2 °F 86.6 °F 66.2 °F 55% 29.89 in 9.0 mi SSW 10.4 mph 18.4 mph N/A   Haze
9:47 AM 86.0 °F 89.4 °F 68.0 °F 55% 29.91 in 10.0 mi South 9.2 mph 20.7 mph N/A   Haze
10:53 AM 89.6 °F 92.2 °F 66.2 °F 46% 29.90 in 10.0 mi South 10.4 mph 20.7 mph N/A   Scattered Clouds
11:49 AM 93.2 °F 94.1 °F 62.6 °F 36% 29.90 in 10.0 mi SSW 12.7 mph 19.6 mph N/A   Scattered Clouds
12:54 PM 96.8 °F 99.0 °F 64.4 °F 34% 29.88 in 10.0 mi South 12.7 mph 19.6 mph N/A   Partly Cloudy
1:47 PM 98.6 °F 100.0 °F 62.6 °F 30% 29.86 in 10.0 mi South 11.5 mph 19.6 mph N/A   Partly Cloudy
2:47 PM 100.4 °F 102.4 °F 62.6 °F 29% 29.84 in 10.0 mi SSW 9.2 mph 17.3 mph N/A   Clear
4:47 PM 104.0 °F 105.3 °F 60.8 °F 24% 29.79 in 10.0 mi SSW 6.9 mph 16.1 mph N/A   Clear
6:50 PM 102.2 °F 103.6 °F 60.8 °F 26% 29.77 in 10.0 mi South 11.5 mph 17.3 mph N/A   Clear
7:47 PM 100.4 °F 100.2 °F 59.0 °F 25% 29.77 in 10.0 mi SSE 12.7 mph 19.6 mph N/A   Clear
8:47 PM 96.8 °F 97.1 °F 60.8 °F 30% 29.78 in 10.0 mi SSE 11.5 mph 16.1 mph N/A   Clear
9:47 PM 96.8 °F 96.2 °F 59.0 °F 28% 29.80 in 10.0 mi SSE 10.4 mph - N/A   Clear
10:15 PM 95.0 °F 93.0 °F 55.4 °F 26% 29.81 in 10.0 mi South 9.2 mph - N/A   Clear
10:35 PM 95.0 °F 93.0 °F 55.4 °F 26% 29.83 in 10.0 mi SSE 9.2 mph - N/A   Clear
10:55 PM 93.2 °F 91.9 °F 57.2 °F 30% 29.83 in 10.0 mi South 8.1 mph - N/A   Clear
11:15 PM 93.2 °F 91.9 °F 57.2 °F 30% 29.83 in 10.0 mi South 9.2 mph - N/A   Clear
11:35 PM 91.4 °F 89.9 °F 57.2 °F 31% 29.83 in 10.0 mi SSE 10.4 mph - N/A   Clear
11:55 PM 91.4 °F 89.9 °F 57.2 °F 31% 29.84 in 10.0 mi SSE 10.4 mph - N/A   Clear